Location: Lussas
(44.6119°N, 4.4726°E)
Time: 14:50:08
(UTC+00:00)

Cosmos 1184 Rocket - Pass Details

Date: 26 November 2020
Orbit: 404 x 418 km, 81.2° (Epoch: 28 January)

Event Time Altitude Azimuth Distance (km) Brightness Sun altitude
Rises 04:53:39 0° 188° (S) 2,361 6.6 -20.8°
Reaches altitude 10° 04:55:40 10° 188° (S) 1,503 5.6 -20.5°
Maximum altitude 04:58:56 85° 102° (ESE) 430 2.7 -19.9°
Drops below altitude 10° 05:02:15 10° 11° (NNE) 1,517 5.6 -19.3°
Sets 05:04:18 0° 11° (NNE) 2,386 6.6 -19.0°
